When you browse on this site, cookies collect data to enhance your experience and personalize the content and advertising you see.
Visit our Privacy Policy to learn more. By continuing to use the site, you agree to this use of cookies and data.
  • In Austria
  • List of Countries
  • For 7 days
  • Water Temperature
  • Weather Map
  • News
  • Weather Widgets
  • user-avatar
    Login

    Hourly Weather Solden

    Today, 26 February, Wednesday

    Time Temperature Precipitation Wind Pressure Humidity
    00:00 -3°C° 0 mm 1 mps 570 mmHg 94%
    01:00 -6°C° 0 mm 2 mps 569 mmHg 93%
    02:00 -6°C° 0.1 mm 2 mps 568 mmHg 93%
    03:00 -6°C° 0.1 mm 1 mps 568 mmHg 92%
    04:00 -6°C° 0.1 mm 1 mps 567 mmHg 91%
    05:00 -6°C° 0.3 mm 1 mps 567 mmHg 89%
    06:00 -8°C° 0.3 mm 2 mps 567 mmHg 87%
    07:00 -9°C° 0 mm 2 mps 567 mmHg 79%
    08:00 -8°C° 0.3 mm 2 mps 567 mmHg 70%
    09:00 -7°C° 0.3 mm 2 mps 567 mmHg 61%
    10:00 -6°C° 0.3 mm 2 mps 567 mmHg 52%
    11:00 -7°C° 0 mm 3 mps 568 mmHg 48%
    12:00 -8°C° 0 mm 4 mps 568 mmHg 43%
    13:00 -7°C° 0 mm 5 mps 568 mmHg 38%
    14:00 -8°C° 0 mm 4 mps 568 mmHg 41%
    15:00 -9°C° 0 mm 4 mps 568 mmHg 43%
    16:00 -10°C° 0 mm 4 mps 567 mmHg 46%
    17:00 -12°C° 0 mm 3 mps 567 mmHg 52%
    18:00 -13°C° 0 mm 3 mps 567 mmHg 58%
    19:00 -15°C° 0 mm 3 mps 567 mmHg 65%
    20:00 -15°C° 0.1 mm 3 mps 568 mmHg 67%
    21:00 -14°C° 0.1 mm 2 mps 569 mmHg 70%
    22:00 -14°C° 0.1 mm 2 mps 569 mmHg 73%
    23:00 -14°C° 0 mm 2 mps 570 mmHg 73%

    Tomorrow, 27 February, Thursday

    Time Temperature Precipitation Wind Pressure Humidity
    00:00 -15°C° 0 mm 2 mps 570 mmHg 73%
    01:00 -15°C° 0 mm 2 mps 570 mmHg 72%
    02:00 -15°C° 0 mm 2 mps 570 mmHg 72%
    03:00 -15°C° 0 mm 2 mps 571 mmHg 72%
    04:00 -15°C° 0 mm 2 mps 571 mmHg 72%
    05:00 -15°C° 0 mm 2 mps 571 mmHg 71%
    06:00 -15°C° 0 mm 2 mps 571 mmHg 71%
    07:00 -15°C° 0 mm 2 mps 571 mmHg 70%
    08:00 -12°C° 0 mm 1 mps 572 mmHg 63%
    09:00 -10°C° 0 mm 1 mps 573 mmHg 55%
    10:00 -8°C° 0 mm 1 mps 574 mmHg 48%
    11:00 -7°C° 0 mm 1 mps 573 mmHg 46%
    12:00 -8°C° 0 mm 2 mps 573 mmHg 45%
    13:00 -7°C° 0 mm 2 mps 573 mmHg 43%
    14:00 -7°C° 0.1 mm 2 mps 572 mmHg 47%
    15:00 -9°C° 0.1 mm 3 mps 571 mmHg 50%
    16:00 -9°C° 0.1 mm 3 mps 570 mmHg 54%
    17:00 -10°C° 0.3 mm 3 mps 570 mmHg 60%
    18:00 -9°C° 0.3 mm 2 mps 570 mmHg 67%
    19:00 -10°C° 0.3 mm 2 mps 569 mmHg 73%
    20:00 -12°C° 0.1 mm 2 mps 569 mmHg 74%
    21:00 -12°C° 0.1 mm 2 mps 569 mmHg 75%
    22:00 -12°C° 0.1 mm 2 mps 569 mmHg 76%
    23:00 -12°C° 0.1 mm 2 mps 569 mmHg 76%

    Day after tomorrow, 28 February, Friday

    Time Temperature Precipitation Wind Pressure Humidity
    00:00 -12°C° 0.1 mm 2 mps 570 mmHg 76%
    01:00 -12°C° 0.1 mm 2 mps 570 mmHg 75%
    02:00 -12°C° 0 mm 2 mps 571 mmHg 75%
    03:00 -13°C° 0 mm 2 mps 571 mmHg 74%
    04:00 -13°C° 0 mm 2 mps 571 mmHg 74%
    05:00 -14°C° 0 mm 3 mps 572 mmHg 73%
    06:00 -15°C° 0 mm 3 mps 572 mmHg 72%
    07:00 -15°C° 0 mm 3 mps 573 mmHg 71%
    08:00 -13°C° 0 mm 3 mps 574 mmHg 65%
    09:00 -12°C° 0 mm 3 mps 576 mmHg 59%
    10:00 -9°C° 0 mm 3 mps 577 mmHg 54%
    11:00 -7°C° 0 mm 2 mps 578 mmHg 49%
    12:00 -6°C° 0 mm 2 mps 578 mmHg 44%
    13:00 -5°C° 0 mm 2 mps 579 mmHg 39%
    14:00 -3°C° 0 mm 1 mps 579 mmHg 40%
    15:00 -2°C° 0 mm 1 mps 579 mmHg 41%
    16:00 -2°C° 0 mm 1 mps 579 mmHg 41%
    17:00 -4°C° 0 mm 1 mps 578 mmHg 45%
    18:00 -7°C° 0 mm 1 mps 577 mmHg 48%
    19:00 -8°C° 0 mm 1 mps 577 mmHg 51%
    20:00 -8°C° 0 mm 1 mps 577 mmHg 52%
    21:00 -8°C° 0 mm 1 mps 577 mmHg 53%
    22:00 -8°C° 0 mm 1 mps 577 mmHg 54%
    23:00 -8°C° 0 mm 1 mps 577 mmHg 55%

    29 February, Saturday

    Time Temperature Precipitation Wind Pressure Humidity
    00:00 -9°C° 0 mm 1 mps 577 mmHg 56%
    01:00 -9°C° 0 mm 1 mps 577 mmHg 56%
    02:00 -9°C° 0 mm 1 mps 576 mmHg 56%
    03:00 -9°C° 0 mm 1 mps 576 mmHg 57%
    04:00 -9°C° 0 mm 1 mps 576 mmHg 57%
    05:00 -9°C° 0 mm 1 mps 575 mmHg 58%
    06:00 -9°C° 0 mm 1 mps 575 mmHg 58%
    07:00 -8°C° 0 mm 1 mps 575 mmHg 59%
    08:00 -7°C° 0 mm 1 mps 575 mmHg 57%
    09:00 -6°C° 0 mm 1 mps 576 mmHg 56%
    10:00 -4°C° 0 mm 1 mps 576 mmHg 55%
    11:00 -5°C° 0 mm 2 mps 576 mmHg 56%
    12:00 -5°C° 0 mm 2 mps 575 mmHg 58%
    13:00 -4°C° 0 mm 2 mps 575 mmHg 59%
    14:00 -4°C° 0 mm 2 mps 574 mmHg 61%
    15:00 -5°C° 0 mm 2 mps 574 mmHg 63%
    16:00 -5°C° 0 mm 2 mps 574 mmHg 65%
    17:00 -6°C° 0 mm 2 mps 573 mmHg 71%
    18:00 -7°C° 0 mm 2 mps 573 mmHg 77%
    19:00 -8°C° 0 mm 1 mps 572 mmHg 83%
    20:00 -8°C° 0.1 mm 1 mps 572 mmHg 86%
    21:00 -8°C° 0.1 mm 1 mps 572 mmHg 89%
    22:00 -7°C° 0.1 mm 1 mps 572 mmHg 91%
    23:00 -7°C° 0.1 mm 1 mps 572 mmHg 92%

    1 March, Sunday

    Time Temperature Precipitation Wind Pressure Humidity
    00:00 -7°C° 0.1 mm 1 mps 572 mmHg 93%
    01:00 -7°C° 0.1 mm 1 mps 572 mmHg 94%
    02:00 -7°C° 0.2 mm 1 mps 572 mmHg 95%
    03:00 -7°C° 0.2 mm 1 mps 571 mmHg 95%
    04:00 -7°C° 0.2 mm 1 mps 571 mmHg 96%
    05:00 -7°C° 0.6 mm 1 mps 571 mmHg 96%
    06:00 -6°C° 0.6 mm 0 mps 571 mmHg 96%
    07:00 -6°C° 0.6 mm 0 mps 571 mmHg 96%
    08:00 -6°C° 0.8 mm 0 mps 571 mmHg 96%
    09:00 -4°C° 0.8 mm 1 mps 572 mmHg 95%
    10:00 -3°C° 0.8 mm 1 mps 572 mmHg 94%
    11:00 -3°C° 1.1 mm 1 mps 572 mmHg 95%
    12:00 -3°C° 1.1 mm 1 mps 572 mmHg 95%
    13:00 -2°C° 1.1 mm 1 mps 571 mmHg 95%
    14:00 -3°C° 0.7 mm 1 mps 571 mmHg 95%
    15:00 -3°C° 0.7 mm 1 mps 571 mmHg 95%
    16:00 -3°C° 0.7 mm 1 mps 571 mmHg 94%
    17:00 -4°C° 0.2 mm 1 mps 571 mmHg 94%
    18:00 -6°C° 0.2 mm 1 mps 570 mmHg 94%
    19:00 -7°C° 0.2 mm 1 mps 570 mmHg 94%
    20:00 -7°C° 0 mm 1 mps 570 mmHg 92%
    21:00 -8°C° 0 mm 1 mps 570 mmHg 89%
    22:00 -8°C° 0 mm 1 mps 570 mmHg 87%
    23:00 -8°C° 0 mm 1 mps 570 mmHg 86%

    2 March, Monday

    Time Temperature Precipitation Wind Pressure Humidity
    00:00 -8°C° 0 mm 1 mps 570 mmHg 86%
    01:00 -8°C° 0 mm 1 mps 570 mmHg 85%
    02:00 -9°C° 0 mm 1 mps 570 mmHg 86%
    03:00 -9°C° 0 mm 1 mps 570 mmHg 86%
    04:00 -9°C° 0 mm 1 mps 570 mmHg 86%
    05:00 -10°C° 0 mm 1 mps 570 mmHg 85%
    06:00 -10°C° 0 mm 1 mps 570 mmHg 83%
    07:00 -10°C° 0 mm 1 mps 570 mmHg 81%
    08:00 -8°C° 0 mm 1 mps 571 mmHg 78%
    09:00 -6°C° 0 mm 1 mps 572 mmHg 75%
    10:00 -3°C° 0 mm 1 mps 573 mmHg 71%
    11:00 -2°C° 0 mm 1 mps 573 mmHg 74%
    12:00 -4°C° 0 mm 2 mps 573 mmHg 76%
    13:00 -3°C° 0 mm 2 mps 573 mmHg 78%
    14:00 -4°C° 0 mm 2 mps 572 mmHg 80%
    15:00 -4°C° 0 mm 2 mps 571 mmHg 83%
    16:00 -2°C° 0 mm 1 mps 571 mmHg 85%
    17:00 -3°C° 0.1 mm 1 mps 570 mmHg 88%
    18:00 -4°C° 0.1 mm 1 mps 570 mmHg 91%
    19:00 -6°C° 0.1 mm 1 mps 569 mmHg 94%
    20:00 -6°C° 0.4 mm 1 mps 569 mmHg 94%
    21:00 -6°C° 0.4 mm 1 mps 569 mmHg 95%
    22:00 -6°C° 0.4 mm 1 mps 569 mmHg 96%
    23:00 -6°C° 0.4 mm 1 mps 569 mmHg 95%
    Show more